E22ZMG-1 Weather Reports


Display with metric or nautical units.
time (UTC)temp
F
wind
direction
speed
MPH
gust
MPH
rain 1hr
in
rain 24hr
in
rain mn
in
humidity
%
barometer
mb
20260509074524 94 0 0.0 0.0 0.00 0.00 0.00 52 974.0
20260509073459 96 0 0.0 0.0 0.00 0.00 0.00 47 974.0
20260509072434 97 0 0.0 0.0 0.00 0.00 0.00 47 974.0
20260509071410 96 0 0.0 0.0 0.00 0.00 0.00 49 974.0
20260509070345 97 0 0.0 0.0 0.00 0.00 0.00 48 974.0
20260509065320 97 0 0.0 0.0 0.00 0.00 0.00 48 975.0
20260509064254 101 0 0.0 0.0 0.00 0.00 0.00 42 975.0
20260509063229 100 0 0.0 0.0 0.00 0.00 0.00 43 975.0
20260509062203 98 0 0.0 0.0 0.00 0.00 0.00 46 975.0
20260509061138 99 0 0.0 0.0 0.00 0.00 0.00 45 975.0
20260509060113 99 0 0.0 0.0 0.00 0.00 0.00 44 976.0
20260509055048 98 0 0.0 0.0 0.00 0.00 0.00 45 976.0
20260509054023 99 0 0.0 0.0 0.00 0.00 0.00 44 976.0
20260509052959 98 0 0.0 0.0 0.00 0.00 0.00 44 976.0
20260509051933 97 0 0.0 0.0 0.00 0.00 0.00 45 976.0
20260509050908 99 0 0.0 0.0 0.00 0.00 0.00 45 976.0
20260509045842 99 0 0.0 0.0 0.00 0.00 0.00 45 976.0
20260509044817 98 0 0.0 0.0 0.00 0.00 0.00 47 977.0
20260509043750 97 0 0.0 0.0 0.00 0.00 0.00 48 977.0
20260509043353 97 0 0.0 0.0 0.00 0.00 0.00 48 977.0
20260509042328 96 0 0.0 0.0 0.00 0.00 0.00 50 977.0
20260509041303 96 0 0.0 0.0 0.00 0.00 0.00 50 977.0
20260509040238 95 0 0.0 0.0 0.00 0.00 0.00 52 977.0
20260509035213 93 0 0.0 0.0 0.00 0.00 0.00 54 978.0
20260509034148 94 0 0.0 0.0 0.00 0.00 0.00 54 978.0
20260509033121 94 0 0.0 0.0 0.00 0.00 0.00 53 978.0
20260509032055 93 0 0.0 0.0 0.00 0.00 0.00 56 978.0
20260509031029 93 0 0.0 0.0 0.00 0.00 0.00 57 978.0
20260509030004 90 0 0.0 0.0 0.00 0.00 0.00 61 978.0
20260509024938 91 0 0.0 0.0 0.00 0.00 0.00 59 979.0
20260509023913 91 0 0.0 0.0 0.00 0.00 0.00 61 979.0
20260509022849 91 0 0.0 0.0 0.00 0.00 0.00 61 979.0
20260509021822 89 0 0.0 0.0 0.00 0.00 0.00 64 979.0
20260509020757 89 0 0.0 0.0 0.00 0.00 0.00 64 979.0
20260509015732 90 0 0.0 0.0 0.00 0.00 0.00 63 979.0
20260509014707 89 0 0.0 0.0 0.00 0.00 0.00 64 979.0
20260509013641 89 0 0.0 0.0 0.00 0.00 0.00 63 979.0
20260509010322 88 0 0.0 0.0 0.00 0.00 0.00 64 978.0
20260509005256 90 0 0.0 0.0 0.00 0.00 0.00 61 978.0
20260509004230 90 0 0.0 0.0 0.00 0.00 0.00 60 978.0
20260509003203 90 0 0.0 0.0 0.00 0.00 0.00 60 978.0
20260509002137 89 0 0.0 0.0 0.00 0.00 0.00 61 978.0
20260509001111 90 0 0.0 0.0 0.00 0.00 0.00 58 978.0
20260509000045 91 0 0.0 0.0 0.00 0.00 0.00 57 978.0
20260508235018 90 0 0.0 0.0 0.00 0.00 0.00 58 977.0
20260508233951 90 0 0.0 0.0 0.00 0.00 0.00 58 977.0
20260508232925 89 0 0.0 0.0 0.00 0.00 0.00 59 977.0
20260508231859 90 0 0.0 0.0 0.00 0.00 0.00 56 977.0
20260508230834 89 0 0.0 0.0 0.00 0.00 0.00 58 977.0
20260508225810 90 0 0.0 0.0 0.00 0.00 0.00 57 977.0
20260508224745 89 0 0.0 0.0 0.00 0.00 0.00 59 977.0
20260508223720 90 0 0.0 0.0 0.00 0.00 0.00 57 977.0
20260508222654 90 0 0.0 0.0 0.00 0.00 0.00 57 977.0
20260508221628 90 0 0.0 0.0 0.00 0.00 0.00 57 976.0
20260508220603 89 0 0.0 0.0 0.00 0.00 0.00 58 976.0
20260508215538 90 0 0.0 0.0 0.00 0.00 0.00 57 976.0
20260508214513 90 0 0.0 0.0 0.00 0.00 0.00 57 976.0
20260508213449 90 0 0.0 0.0 0.00 0.00 0.00 56 976.0
20260508212423 90 0 0.0 0.0 0.00 0.00 0.00 57 976.0
20260508211358 90 0 0.0 0.0 0.00 0.00 0.00 56 976.0
20260508210333 89 0 0.0 0.0 0.00 0.00 0.00 59 976.0
20260508205308 90 0 0.0 0.0 0.00 0.00 0.00 58 976.0
20260508204242 89 0 0.0 0.0 0.00 0.00 0.00 58 976.0
20260508203217 90 0 0.0 0.0 0.00 0.00 0.00 58 976.0
20260508202152 90 0 0.0 0.0 0.00 0.00 0.00 57 976.0
20260508201127 91 0 0.0 0.0 0.00 0.00 0.00 54 975.0
20260508195037 92 0 0.0 0.0 0.00 0.00 0.00 53 976.0
20260508194012 91 0 0.0 0.0 0.00 0.00 0.00 54 976.0
20260508192948 91 0 0.0 0.0 0.00 0.00 0.00 54 976.0
20260508191923 90 0 0.0 0.0 0.00 0.00 0.00 56 976.0
20260508190858 90 0 0.0 0.0 0.00 0.00 0.00 56 976.0
20260508185832 90 0 0.0 0.0 0.00 0.00 0.00 56 976.0
20260508184807 90 0 0.0 0.0 0.00 0.00 0.00 56 976.0
20260508183740 91 0 0.0 0.0 0.00 0.00 0.00 55 976.0
20260508182715 90 0 0.0 0.0 0.00 0.00 0.00 56 976.0
20260508181649 89 0 0.0 0.0 0.00 0.00 0.00 58 976.0
20260508180623 89 0 0.0 0.0 0.00 0.00 0.00 58 976.0
20260508175558 87 0 0.0 0.0 0.00 0.00 0.00 60 976.0
20260508174533 88 0 0.0 0.0 0.00 0.00 0.00 59 976.0
20260508173506 89 0 0.0 0.0 0.00 0.00 0.00 58 976.0
20260508172442 90 0 0.0 0.0 0.00 0.00 0.00 56 976.0
20260508171417 90 0 0.0 0.0 0.00 0.00 0.00 55 976.0
20260508170352 90 0 0.0 0.0 0.00 0.00 0.00 56 976.0
20260508165327 90 0 0.0 0.0 0.00 0.00 0.00 57 976.0
20260508164303 90 0 0.0 0.0 0.00 0.00 0.00 56 977.0
20260508163237 91 0 0.0 0.0 0.00 0.00 0.00 55 977.0
20260508162212 91 0 0.0 0.0 0.00 0.00 0.00 53 977.0
20260508161147 92 0 0.0 0.0 0.00 0.00 0.00 51 977.0
20260508160121 92 0 0.0 0.0 0.00 0.00 0.00 52 977.0
20260508155056 93 0 0.0 0.0 0.00 0.00 0.00 52 977.0
20260508154031 93 0 0.0 0.0 0.00 0.00 0.00 51 976.0
20260508153006 94 0 0.0 0.0 0.00 0.00 0.00 50 976.0
20260508151940 95 0 0.0 0.0 0.00 0.00 0.00 49 976.0
20260508150913 96 0 0.0 0.0 0.00 0.00 0.00 48 976.0
20260508145848 96 0 0.0 0.0 0.00 0.00 0.00 48 976.0
20260508144822 94 0 0.0 0.0 0.00 0.00 0.00 50 976.0
20260508143757 95 0 0.0 0.0 0.00 0.00 0.00 48 975.0
20260508142731 96 0 0.0 0.0 0.00 0.00 0.00 46 975.0
20260508141706 95 0 0.0 0.0 0.00 0.00 0.00 47 975.0
20260508140641 96 0 0.0 0.0 0.00 0.00 0.00 46 974.0
20260508135616 96 0 0.0 0.0 0.00 0.00 0.00 45 974.0
20260508134551 95 0 0.0 0.0 0.00 0.00 0.00 45 974.0
20260508133526 97 0 0.0 0.0 0.00 0.00 0.00 45 974.0
20260508132501 97 0 0.0 0.0 0.00 0.00 0.00 48 974.0
20260508131434 98 0 0.0 0.0 0.00 0.00 0.00 49 974.0
20260508130409 98 0 0.0 0.0 0.00 0.00 0.00 45 973.0
20260508125344 98 0 0.0 0.0 0.00 0.00 0.00 45 973.0
20260508124319 98 0 0.0 0.0 0.00 0.00 0.00 46 973.0
20260508123252 100 0 0.0 0.0 0.00 0.00 0.00 45 973.0
20260508122226 100 0 0.0 0.0 0.00 0.00 0.00 39 973.0
20260508121200 99 0 0.0 0.0 0.00 0.00 0.00 40 972.0
20260508120134 101 0 0.0 0.0 0.00 0.00 0.00 40 973.0
20260508115109 101 0 0.0 0.0 0.00 0.00 0.00 40 972.0
20260508114043 102 0 0.0 0.0 0.00 0.00 0.00 39 972.0
20260508113018 102 0 0.0 0.0 0.00 0.00 0.00 39 972.0
20260508111952 103 0 0.0 0.0 0.00 0.00 0.00 39 972.0
20260508110925 102 0 0.0 0.0 0.00 0.00 0.00 39 972.0
20260508105900 102 0 0.0 0.0 0.00 0.00 0.00 39 971.0
20260508104834 104 0 0.0 0.0 0.00 0.00 0.00 37 971.0
20260508103809 105 0 0.0 0.0 0.00 0.00 0.00 35 971.0
20260508102743 106 0 0.0 0.0 0.00 0.00 0.00 33 971.0
20260508101716 106 0 0.0 0.0 0.00 0.00 0.00 33 971.0
20260508100650 107 0 0.0 0.0 0.00 0.00 0.00 32 971.0
20260508095624 106 0 0.0 0.0 0.00 0.00 0.00 32 971.0
20260508094558 105 0 0.0 0.0 0.00 0.00 0.00 33 971.0
20260508093532 107 0 0.0 0.0 0.00 0.00 0.00 32 971.0
20260508092506 107 0 0.0 0.0 0.00 0.00 0.00 32 971.0
20260508091440 106 0 0.0 0.0 0.00 0.00 0.00 32 971.0
20260508090415 107 0 0.0 0.0 0.00 0.00 0.00 33 971.0
20260508085350 107 0 0.0 0.0 0.00 0.00 0.00 33 971.0
20260508084324 105 0 0.0 0.0 0.00 0.00 0.00 34 971.0
20260508083259 107 0 0.0 0.0 0.00 0.00 0.00 32 971.0
20260508082235 106 0 0.0 0.0 0.00 0.00 0.00 33 972.0
20260508081210 107 0 0.0 0.0 0.00 0.00 0.00 32 972.0
20260508080145 106 0 0.0 0.0 0.00 0.00 0.00 33 972.0